Regional Weather Roundup
Issued by NWS

Home | Current Version | Previous Version | Text Only | Print | Product List | Glossary On
Versions: 1 2 3 4 5 6 7 8 9 10 11 12 13 14 15 16 17 18 19 20 21 22 23 24 25 26 27 28 29 30 31 32 33 34 35 36 37 38 39 40 41 42 43 44 45 46 47 48 49 50
000
ASUS44 KFWD 201715
RWRTX
NORTH TEXAS HOURLY WEATHER ROUNDUP
NATIONAL WEATHER SERVICE FORT WORTH TX
1100 AM CST SAT DEC 20 2014

NOTE: "FAIR" INDICATES FEW OR NO CLOUDS BELOW 12,000 FEET WITH NO
SIGNIFICANT WEATHER AND/OR OBSTRUCTIONS TO VISIBILITY.

TXZ118-119-201800-
DALLAS/FORT WORTH METROPLEX

CITY           SKY/WX    TMP DP  RH WIND       PRES   REMARKS
DFW AIRPORT    DRIZZLE   45  42  89 NE7       30.26S FOG
DALLAS LOVE    DRIZZLE   46  43  89 NE6       30.27S FOG
FTW MEACHAM    CLOUDY    47  42  83 NE3       30.26S HAZE
DAL-EXECUTIVE  CLOUDY    48  44  86 N5        30.25S FOG
FTW-ALLIANCE   DRIZZLE   45  42  89 NE5       30.26S FOG
FTW-SPINKS     PTSUNNY   46  43  87 CALM      30.28R FOG
ARLINGTON      CLOUDY    47  42  83 NE7       30.27R
GRAND PRAIRIE  CLOUDY    46  45  93 N3        30.28R FOG
ADDISON        CLOUDY    45  41  87 NE5       30.26S FOG
MESQUITE       CLOUDY    46  43  87 N6        30.27S FOG
LANCASTER      CLOUDY    46  42  87 NE5       30.28S FOG
$$

TXZ091>094-102>105-117-120-121-131>134-201800-
NORTH CENTRAL TEXAS

CITY           SKY/WX    TMP DP  RH WIND       PRES   REMARKS
SHRMAN/DENISON CLOUDY    44  43  97 CALM      30.28S FOG
GAINESVILLE    CLOUDY    43  37  79 CALM      30.28F
BOWIE          CLOUDY    41  38  87 CALM      30.26S
BRIDGEPORT     CLOUDY    45  43  91 CALM      30.28S
DECATUR        PTSUNNY   43  41  93 NE3       30.26S
DENTON         CLOUDY    44  41  89 N3        30.27S
MCKINNEY       CLOUDY    45  41  86 NE7       30.26F
GREENVILLE     CLOUDY    45  45 100 CALM      30.27S FOG
ROCKWALL       CLOUDY    45  43  92 N5        30.25F
TERRELL        CLOUDY    48  45  89 NE7       30.27S
WAXAHACHIE     CLOUDY    46  46 100 NE5       30.27S FOG
CLEBURNE       CLOUDY    46  45  93 N5        30.27F FOG
GRANBURY       CLOUDY    47  41  79 CALM      30.28S
$$

TXZ083>090-098>101-113>116-127>130-139>142-154-155-201800-
WESTERN NORTH TEXAS

CITY           SKY/WX    TMP DP  RH WIND       PRES   REMARKS
WICHITA FALLS  CLOUDY    44  41  89 S8        30.24F WCI  39
WF-KICKAPOO    CLOUDY    43  41  91 SE8       30.27S FOG     WCI  38
VERNON         CLOUDY    46  39  77 SE9       30.23F
ABILENE        CLOUDY    46  38  73 S7        30.24R
BRECKENRIDGE   CLOUDY    47  40  76 CALM      30.25R
GRAHAM         CLOUDY    44  40  86 CALM      30.24S
MINERAL WELLS  CLOUDY    45  40  82 E3        30.25R
STEPHENVILLE   CLOUDY    45  40  82 CALM      30.27S
COMANCHE       CLOUDY    46  45  99 S5        30.26R
BROWNWOOD      CLOUDY    48  39  71 CALM      30.25S
COLEMAN        CLOUDY    47  42  81 CALM      30.24F
BRADY          CLOUDY    48  39  71 S5        30.23S
$$

TXZ143>147-156>162-174-175-201800-
CENTRAL TEXAS

CITY           SKY/WX    TMP DP  RH WIND       PRES   REMARKS
WACO           CLOUDY    49  44  83 N7        30.26S
WACO-TSTC      CLOUDY    48  46  93 N8        30.26S FOG
WACO-MCGREGOR  PTSUNNY   48  43  81 N8        30.27S
HILLSBORO      CLOUDY    48  44  85 N5        30.26S
CORSICANA      CLOUDY    50  44  80 N7        30.26S
MEXIA          CLOUDY    48  45  89 N6        30.24S
HEARNE         CLOUDY    50  47  87 CALM      30.26S FOG
CAMERON        CLOUDY    50  47  91 N5        30.26R FOG
TEMPLE         CLOUDY    50  41  71 N6        30.25S
KILLEEN        CLOUDY    48  44  85 NW6       30.25R
KILLEEN-SKYLRK CLOUDY    48  39  71 NW3       30.24R
FORT HOOD      CLOUDY    48  44  84 NW3       30.25R
GATESVILLE     PTSUNNY   48  43  81 CALM      30.28S
HAMILTON       CLOUDY    46  45  96 S5        30.26S
$$

TXZ095>097-106>112-122>126-135>138-148>153-164>167-201800-
EAST TEXAS

CITY           SKY/WX    TMP DP  RH WIND       PRES   REMARKS
PARIS          CLOUDY    45  41  87 CALM      30.27F
SULPHUR SPRNGS CLOUDY    47  44  90 E3        30.29S FOG
MOUNT PLEASANT CLOUDY    46  44  91 NE5       30.28S
MINEOLA        CLOUDY    46  46 100 CALM      30.26F FOG
TYLER          CLOUDY    50  44  80 N5        30.25R
LONGVIEW       CLOUDY    47  42  83 E9        30.25F
MARSHALL       CLOUDY    48  46  92 CALM      30.29S
ATHENS         CLOUDY    46  45  93 NE6       30.25R
PALESTINE      CLOUDY    49  46  91 NE5       30.27R
JACKSONVILLE   CLOUDY    46  45  97 NE6       30.26S FOG
HENDERSON      CLOUDY    46  44  93 E6        30.26S
NACOGDOCHES    CLOUDY    46  43  87 NE5       30.25F
LUFKIN         CLOUDY    52  44  74 NE8       30.24S
$$

SUPPLEMENTAL OBSERVATIONS (CENTRAL)

CITY           SKY/WX    TMP DP  RH WIND       PRES   REMARKS
LAKE TEXOMA      N/A     45  39  81 NE2         N/A
PAT MAYSE LAKE   N/A     45  41  87 SE2         N/A
GREENVILLE       N/A     45  43  93 N6          N/A
CEDAR HILL       N/A     46  41  81 NE5         N/A
ATHENS           N/A     48  45  87 NE3         N/A
LAKE LIMESTONE   N/A     50  46  87 N3          N/A
MCGREGOR         N/A     50  45  81 N3          N/A
TEMPLE           N/A     50  45  81 NW2         N/A
$$

SUPPLEMENTAL OBSERVATIONS (WEST)

CITY           SKY/WX    TMP DP  RH WIND       PRES   REMARKS
MILLERS CREEK    N/A     46  43  87 SE6         N/A
GRANBURY         N/A     46  39  76 NW2         N/A
COMANCHE         N/A     46  45  93 SE6         N/A
HAMBY            N/A     46  37  71 S5          N/A
IVIE RESERVOIR   N/A     48  39  71 SE3         N/A
COLORADO BEND    N/A     46  41  81 E3          N/A
$$

SUPPLEMENTAL OBSERVATIONS (EAST)

CITY           SKY/WX    TMP DP  RH WIND       PRES   REMARKS
CLARKSVILLE      N/A     45  41  87 E5          N/A
TEXARKANA        N/A     46  39  76 VRB3        N/A
LINDEN           N/A     46  41  81 E1          N/A
CADDO LAKE       N/A     45  39  81 N2          N/A
GILMER           N/A     48  43  81 NE3         N/A
HENDERSON        N/A     46  43  87 E7          N/A
LUFKIN           N/A     48  43  81 MISG        N/A
N SABINE NF      N/A     48  45  87 MISG        N/A
S SABINE NF      N/A     48  43  81 NE5         N/A
$$

SUPPLEMENTAL OBSERVATIONS ARE A COLLECTION OF AUTOMATED INSTRUMENTS
THAT ARE MAINTAINED BY A VARIETY OF FEDERAL AND STATE AGENCIES.
CERTAIN ELEMENTS...SUCH AS HUMIDITY VALUES AND SUSTAINED WIND
SPEEDS...MAY BE APPROXIMATED.




USA.gov is the U.S. government's official web portal to all federal, state and local government web resources and services.